When you browse on this site, cookies collect data to enhance your experience and personalize the content and advertising you see.
Visit our Privacy Policy to learn more. By continuing to use the site, you agree to this use of cookies and data.
  • In Hungary
  • List of Countries
  • For 7 days
  • Water Temperature
  • Satellite Maps
  • Weather Map
  • News
  • Weather Widgets
  • user-avatar
    Login

    Hourly Weather Novomoskovsk

    Today, 26 April, Friday

    Time Temperature Precipitation Wind Pressure Humidity
    00:00 +18°C° 0 mm 2 mps 762 mmHg 50%
    01:00 +17°C° 0 mm 2 mps 761 mmHg 52%
    02:00 +16°C° 0 mm 3 mps 761 mmHg 54%
    03:00 +16°C° 0 mm 3 mps 761 mmHg 54%
    04:00 +15°C° 0 mm 2 mps 761 mmHg 55%
    05:00 +15°C° 0 mm 2 mps 761 mmHg 56%
    06:00 +16°C° 0 mm 2 mps 761 mmHg 53%
    07:00 +18°C° 0 mm 2 mps 761 mmHg 49%
    08:00 +20°C° 0 mm 3 mps 761 mmHg 47%
    09:00 +21°C° 0.1 mm 3 mps 761 mmHg 43%
    10:00 +24°C° 0.1 mm 2 mps 760 mmHg 40%
    11:00 +25°C° 0.1 mm 2 mps 760 mmHg 37%
    12:00 +25°C° 0 mm 2 mps 760 mmHg 35%
    13:00 +25°C° 0 mm 2 mps 760 mmHg 34%
    14:00 +25°C° 0 mm 1 mps 760 mmHg 32%
    15:00 +25°C° 0 mm 1 mps 759 mmHg 34%
    16:00 +25°C° 0 mm 1 mps 759 mmHg 35%
    17:00 +25°C° 0 mm 1 mps 759 mmHg 37%
    18:00 +23°C° 0.1 mm 1 mps 759 mmHg 41%
    19:00 +21°C° 0.1 mm 1 mps 759 mmHg 44%
    20:00 +20°C° 0.1 mm 1 mps 759 mmHg 48%
    21:00 +19°C° 0.1 mm 1 mps 759 mmHg 50%
    22:00 +18°C° 0.1 mm 1 mps 759 mmHg 51%
    23:00 +17°C° 0.1 mm 2 mps 759 mmHg 53%

    Tomorrow, 27 April, Saturday

    Time Temperature Precipitation Wind Pressure Humidity
    00:00 +16°C° 0 mm 1 mps 759 mmHg 56%
    01:00 +15°C° 0 mm 1 mps 759 mmHg 59%
    02:00 +14°C° 0 mm 0 mps 759 mmHg 62%
    03:00 +15°C° 0 mm 1 mps 759 mmHg 62%
    04:00 +14°C° 0 mm 1 mps 758 mmHg 63%
    05:00 +14°C° 0 mm 1 mps 758 mmHg 63%
    06:00 +16°C° 0 mm 1 mps 758 mmHg 57%
    07:00 +17°C° 0 mm 0 mps 758 mmHg 52%
    08:00 +19°C° 0 mm 0 mps 758 mmHg 47%
    09:00 +22°C° 0 mm 1 mps 758 mmHg 44%
    10:00 +23°C° 0 mm 1 mps 757 mmHg 41%
    11:00 +24°C° 0 mm 2 mps 757 mmHg 37%
    12:00 +25°C° 0 mm 2 mps 757 mmHg 36%
    13:00 +25°C° 0 mm 2 mps 756 mmHg 34%
    14:00 +26°C° 0 mm 3 mps 756 mmHg 32%
    15:00 +25°C° 0 mm 2 mps 755 mmHg 35%
    16:00 +25°C° 0 mm 2 mps 755 mmHg 39%
    17:00 +24°C° 0 mm 2 mps 755 mmHg 42%
    18:00 +23°C° 0 mm 2 mps 755 mmHg 43%
    19:00 +21°C° 0 mm 2 mps 755 mmHg 45%
    20:00 +20°C° 0 mm 1 mps 755 mmHg 47%
    21:00 +20°C° 0 mm 1 mps 755 mmHg 49%
    22:00 +19°C° 0 mm 1 mps 755 mmHg 51%
    23:00 +19°C° 0 mm 1 mps 754 mmHg 53%

    Day after tomorrow, 28 April, Sunday

    Time Temperature Precipitation Wind Pressure Humidity
    00:00 +18°C° 0 mm 1 mps 754 mmHg 55%
    01:00 +18°C° 0 mm 1 mps 754 mmHg 56%
    02:00 +16°C° 0 mm 2 mps 754 mmHg 58%
    03:00 +16°C° 0 mm 2 mps 754 mmHg 58%
    04:00 +16°C° 0 mm 2 mps 754 mmHg 58%
    05:00 +15°C° 0 mm 2 mps 753 mmHg 58%
    06:00 +17°C° 0 mm 2 mps 753 mmHg 53%
    07:00 +18°C° 0 mm 3 mps 754 mmHg 48%
    08:00 +19°C° 0 mm 3 mps 754 mmHg 42%
    09:00 +20°C° 0 mm 3 mps 753 mmHg 40%
    10:00 +22°C° 0 mm 4 mps 753 mmHg 37%
    11:00 +23°C° 0 mm 4 mps 753 mmHg 35%
    12:00 +23°C° 0 mm 4 mps 753 mmHg 35%
    13:00 +23°C° 0 mm 4 mps 753 mmHg 35%
    14:00 +24°C° 0 mm 3 mps 753 mmHg 35%
    15:00 +22°C° 0 mm 3 mps 753 mmHg 40%
    16:00 +21°C° 0 mm 3 mps 752 mmHg 44%
    17:00 +20°C° 0 mm 3 mps 752 mmHg 48%
    18:00 +19°C° 0 mm 3 mps 752 mmHg 53%
    19:00 +17°C° 0 mm 3 mps 753 mmHg 59%
    20:00 +16°C° 0 mm 3 mps 753 mmHg 64%
    21:00 +16°C° 0 mm 3 mps 753 mmHg 66%
    22:00 +16°C° 0 mm 2 mps 753 mmHg 67%
    23:00 +16°C° 0 mm 2 mps 753 mmHg 69%

    29 April, Monday

    Time Temperature Precipitation Wind Pressure Humidity
    00:00 +15°C° 0 mm 2 mps 753 mmHg 71%
    01:00 +15°C° 0 mm 2 mps 753 mmHg 74%
    02:00 +14°C° 0 mm 1 mps 753 mmHg 77%
    03:00 +14°C° 0 mm 1 mps 753 mmHg 78%
    04:00 +14°C° 0 mm 1 mps 753 mmHg 78%
    05:00 +14°C° 0 mm 2 mps 753 mmHg 79%
    06:00 +15°C° 0 mm 2 mps 754 mmHg 76%
    07:00 +16°C° 0 mm 3 mps 754 mmHg 72%
    08:00 +17°C° 0 mm 3 mps 754 mmHg 68%
    09:00 +18°C° 0 mm 4 mps 754 mmHg 66%
    10:00 +18°C° 0 mm 4 mps 754 mmHg 65%
    11:00 +19°C° 0 mm 5 mps 755 mmHg 63%
    12:00 +19°C° 0 mm 5 mps 754 mmHg 64%
    13:00 +19°C° 0 mm 6 mps 754 mmHg 65%
    14:00 +19°C° 0 mm 6 mps 754 mmHg 66%
    15:00 +17°C° 0 mm 6 mps 754 mmHg 67%
    16:00 +17°C° 0 mm 6 mps 754 mmHg 69%
    17:00 +16°C° 0 mm 6 mps 754 mmHg 70%
    18:00 +15°C° 0.1 mm 6 mps 754 mmHg 74%
    19:00 +14°C° 0.1 mm 6 mps 754 mmHg 78%
    20:00 +13°C° 0.1 mm 5 mps 754 mmHg 83%
    21:00 +12°C° 0.1 mm 5 mps 754 mmHg 84%
    22:00 +12°C° 0.1 mm 5 mps 754 mmHg 86%
    23:00 +12°C° 0.1 mm 5 mps 754 mmHg 88%

    30 April, Tuesday

    Time Temperature Precipitation Wind Pressure Humidity
    00:00 +12°C° 0.1 mm 5 mps 754 mmHg 88%
    01:00 +12°C° 0.1 mm 4 mps 754 mmHg 88%
    02:00 +12°C° 0.1 mm 3 mps 753 mmHg 88%
    03:00 +12°C° 0.1 mm 3 mps 753 mmHg 88%
    04:00 +12°C° 0.1 mm 3 mps 753 mmHg 89%
    05:00 +12°C° 0.1 mm 3 mps 753 mmHg 89%
    06:00 +13°C° 0 mm 4 mps 753 mmHg 84%
    07:00 +14°C° 0 mm 4 mps 753 mmHg 78%
    08:00 +15°C° 0 mm 4 mps 753 mmHg 72%
    09:00 +17°C° 0.3 mm 4 mps 753 mmHg 70%
    10:00 +18°C° 0.3 mm 4 mps 752 mmHg 67%
    11:00 +18°C° 0.3 mm 4 mps 752 mmHg 65%
    12:00 +19°C° 1 mm 5 mps 752 mmHg 62%
    13:00 +20°C° 1 mm 5 mps 751 mmHg 60%
    14:00 +20°C° 1 mm 5 mps 751 mmHg 57%
    15:00 +20°C° 1.3 mm 4 mps 750 mmHg 60%
    16:00 +19°C° 1.3 mm 4 mps 750 mmHg 63%
    17:00 +19°C° 1.3 mm 3 mps 750 mmHg 66%
    18:00 +18°C° 1.7 mm 3 mps 750 mmHg 70%
    19:00 +17°C° 1.7 mm 3 mps 750 mmHg 75%
    20:00 +14°C° 1.7 mm 3 mps 750 mmHg 79%
    21:00 +14°C° 1.5 mm 3 mps 750 mmHg 82%
    22:00 +14°C° 1.5 mm 3 mps 749 mmHg 84%
    23:00 +13°C° 1.5 mm 3 mps 749 mmHg 87%

    1 May, Wednesday

    Time Temperature Precipitation Wind Pressure Humidity
    00:00 +13°C° 0.4 mm 3 mps 749 mmHg 88%
    01:00 +13°C° 0.4 mm 3 mps 749 mmHg 88%
    02:00 +12°C° 0.4 mm 3 mps 748 mmHg 89%
    03:00 +12°C° 0.2 mm 3 mps 748 mmHg 90%
    04:00 +12°C° 0.2 mm 3 mps 748 mmHg 90%
    05:00 +12°C° 0.2 mm 3 mps 748 mmHg 91%
    06:00 +13°C° 0 mm 3 mps 748 mmHg 86%
    07:00 +14°C° 0 mm 3 mps 748 mmHg 80%
    08:00 +15°C° 0 mm 4 mps 748 mmHg 74%
    09:00 +17°C° 0.3 mm 4 mps 747 mmHg 70%
    10:00 +18°C° 0.3 mm 4 mps 747 mmHg 67%
    11:00 +19°C° 0.3 mm 4 mps 747 mmHg 63%
    12:00 +19°C° 1 mm 5 mps 747 mmHg 62%
    13:00 +19°C° 1 mm 5 mps 746 mmHg 62%
    14:00 +20°C° 1 mm 5 mps 746 mmHg 62%
    15:00 +18°C° 1.5 mm 4 mps 746 mmHg 68%
    16:00 +17°C° 1.5 mm 3 mps 746 mmHg 75%
    17:00 +16°C° 1.5 mm 2 mps 746 mmHg 81%
    18:00 +15°C° 1.2 mm 2 mps 746 mmHg 84%
    19:00 +15°C° 1.2 mm 1 mps 746 mmHg 87%
    20:00 +14°C° 1.2 mm 1 mps 746 mmHg 90%
    21:00 +14°C° 1.3 mm 2 mps 746 mmHg 90%
    22:00 +12°C° 1.3 mm 3 mps 746 mmHg 91%
    23:00 +10°C° 1.3 mm 5 mps 745 mmHg 91%
    Show more